Location: Alberta Star Party
(51.6612°N, 112.9089°W)
Time: 02:40:00
(UTC-06:00)

Amateur Radio Satellites - All Passes

Search period start: 01 October 2016 02:10
Search period end: 02 October 2016 02:10
Location: Alberta Star Party, 51.6612°N, 112.9089°W

Satellite Date Start Highest point End Downlink Frequencies (MHz)
Time Altitude Azimuth
TIGRISAT 01 Oct 02:10:45 02:11:33 10° 308° (NW) 02:12:20 435.000
UKube-1 01 Oct 02:11:06 02:14:12 19° 269° (W) 02:17:19 .
NANOSAT C BR1 01 Oct 02:12:13 02:16:07 37° 293° (WNW) 02:20:00 145.865
ISS 01 Oct 02:32:17 02:34:30 17° 218° (SW) 02:36:42 145.825
BEESAT 2 01 Oct 02:36:45 02:40:43 72° 314° (NW) 02:44:43 435.950
QB50P2 01 Oct 02:39:37 02:42:48 21° 300° (WNW) 02:45:58 145.880/145.840
POLYITAN 1 01 Oct 02:41:47 02:44:58 21° 300° (WNW) 02:48:08 437.675
Gurwin Techsat 1B 01 Oct 02:42:10 02:46:27 24° 91° (E) 02:50:44 435.225
YUBILEINY 01 Oct 02:51:47 02:59:49 42° 85° (E) 03:07:50 435.215
Oscar 19 01 Oct 02:55:04 03:00:09 55° 101° (E) 03:05:10 437.125/150
TISAT 1 01 Oct 02:56:55 03:00:18 23° 267° (W) 03:03:42 437.305
BUGSAT 1 01 Oct 03:01:55 03:05:24 28° 296° (WNW) 03:08:53 437.445
JAS-2 01 Oct 03:02:31 03:09:45 42° 301° (WNW) 03:16:46 435.910
MOZHAYETS 4 01 Oct 03:03:21 03:06:54 23° 60° (ENE) 03:10:29
AO-85 01 Oct 03:03:26 03:06:41 19° 18° (NNE) 03:09:47 145.980
KKS-1 01 Oct 03:03:51 03:06:38 16° 56° (NE) 03:09:24 437.445
BEESAT 3 01 Oct 03:12:22 03:15:47 27° 328° (NNW) 03:19:14 437.485
DUCHIFAT 1 01 Oct 03:15:32 03:17:26 13° 305° (NW) 03:19:20 145.980
ITUPSAT 1 01 Oct 03:21:03 03:25:46 64° 258° (WSW) 03:30:34 437.325
QB50P1 01 Oct 03:22:35 03:23:27 11° 308° (NW) 03:24:18 145.935-145.965
RS-15 01 Oct 03:26:57 03:39:13 62° 33° (NNE) 03:51:25 29.354- 29.394
Cosmos 2504 01 Oct 03:27:52 03:33:33 26° 81° (E) 03:39:09 435.465 / 435.565
STARS 01 Oct 03:28:04 03:30:28 15° 55° (NE) 03:32:52 437.465
SWISSCUBE 01 Oct 03:32:23 03:36:57 46° 261° (W) 03:41:35 437.505
Cosmos 2491 01 Oct 03:43:44 03:51:58 45° 274° (W) 04:00:08 435.465 / 435.565
BEESAT 01 Oct 03:45:08 03:49:35 39° 262° (W) 03:54:06 436.000
CUSAT 1 01 Oct 03:51:30 03:55:43 15° 40° (NE) 03:59:40 437.405
AIST 2 01 Oct 03:52:18 03:56:03 35° 121° (ESE) 03:59:51 435.215
ITAMSAT 1 01 Oct 03:56:12 04:00:47 30° 94° (E) 04:05:21 435.822/435.867
PCSat 01 Oct 03:56:27 04:00:33 22° 109° (ESE) 04:04:39 145.827
DANDE 01 Oct 04:13:36 04:17:18 13° 37° (NE) 04:20:59 436.750
BEESAT 2 01 Oct 04:16:13 04:19:12 20° 336° (NNW) 04:22:12 435.950
Gurwin Techsat 1B 01 Oct 04:21:34 04:26:50 62° 291° (WNW) 04:32:04 435.225
CUBESAT XI-V 01 Oct 04:32:29 04:36:19 25° 61° (ENE) 04:40:11 437.345
Oscar 19 01 Oct 04:34:52 04:39:13 28° 300° (WNW) 04:43:31 437.125/150
KKS-1 01 Oct 04:38:11 04:42:39 82° 256° (WSW) 04:47:07 437.445
MOZHAYETS 4 01 Oct 04:39:13 04:43:44 58° 259° (W) 04:48:18
AO-7 01 Oct 04:42:03 04:49:47 40° 97° (E) 04:57:28 29.400- 29.500
AO-85 01 Oct 04:43:47 04:48:04 55° 41° (NE) 04:52:02 145.980
YUBILEINY 01 Oct 04:47:50 04:56:26 56° 289° (WNW) 05:05:02 435.215
JAS-2 01 Oct 04:49:05 04:52:48 14° 323° (NW) 04:56:30 435.910
BEESAT 3 01 Oct 04:52:43 04:54:40 13° 351° (N) 04:56:38 437.485
STARS 01 Oct 05:01:48 05:06:12 88° 69° (ENE) 05:10:36 437.465
Cosmos 2504 01 Oct 05:18:58 05:26:13 74° 283° (WNW) 05:33:26 435.465 / 435.565
AIST 2 01 Oct 05:30:34 05:34:30 41° 321° (NW) 05:38:29 435.215
CUSAT 1 01 Oct 05:32:30 05:40:02 47° 65° (ENE) 05:46:26 437.405
ITAMSAT 1 01 Oct 05:35:27 05:40:28 49° 294° (WNW) 05:45:30 435.822/435.867
PCSat 01 Oct 05:37:57 05:43:23 78° 309° (NW) 05:48:51 145.827
AIST 1 01 Oct 05:39:30 05:43:47 56° 96° (E) 05:48:04
RS-15 01 Oct 05:40:00 05:52:05 63° 241° (WSW) 06:03:57 29.354- 29.394
BRITE-PL 01 Oct 05:42:35 05:44:03 11° 82° (E) 05:45:30 437.365/2234.400
HORYU 2 01 Oct 05:44:39 05:47:38 17° 90° (E) 05:50:36 437.375
DANDE 01 Oct 05:55:04 06:02:47 38° 61° (ENE) 06:10:08 436.750
BEESAT 2 01 Oct 05:56:39 05:58:28 13° 360° (N) 06:00:16 435.950
Gurwin Techsat 1B 01 Oct 06:03:14 06:05:49 14° 311° (NW) 06:08:23 435.225
CUBESAT XI-V 01 Oct 06:08:50 06:13:25 52° 260° (W) 06:18:05 437.345
KKS-1 01 Oct 06:18:27 06:19:57 11° 274° (W) 06:21:26 437.445
CUTE-I 01 Oct 06:23:45 06:25:48 12° 84° (E) 06:27:52 437.470
Cubesat XI-IV 01 Oct 06:24:45 06:26:52 12° 84° (E) 06:28:58 437.490
AO-85 01 Oct 06:24:46 06:28:10 24° 244° (WSW) 06:31:22 145.980
O/OREOS (USA 219) 01 Oct 06:25:06 06:27:05 13° 97° (E) 06:29:04 437.305
BEESAT 3 01 Oct 06:31:33 06:33:52 15° 15° (NNE) 06:36:12 437.485
AO-7 01 Oct 06:34:50 06:42:58 61° 299° (WNW) 06:51:04 29.400- 29.500
STARS 01 Oct 06:41:15 06:43:12 13° 273° (W) 06:45:10 437.465
GOMX 1 01 Oct 06:49:38 06:52:51 20° 89° (E) 06:55:57 467.674
YUBILEINY 01 Oct 06:50:19 06:55:39 17° 316° (NW) 07:00:59 435.215
STRAND 1 01 Oct 07:03:17 07:08:03 41° 65° (ENE) 07:12:51 437.568
AIST 2 01 Oct 07:11:21 07:14:01 16° 345° (NNW) 07:16:42 435.215
CUSAT 1 01 Oct 07:14:47 07:22:09 48° 269° (W) 07:28:20 437.405
Cosmos 2504 01 Oct 07:16:16 07:21:04 19° 308° (NW) 07:25:52 435.465 / 435.565
ITAMSAT 1 01 Oct 07:17:24 07:18:48 11° 314° (NW) 07:20:13 435.822/435.867
AIST 1 01 Oct 07:18:30 07:21:45 20° 295° (WNW) 07:25:00
BRITE-PL 01 Oct 07:18:40 07:23:33 79° 104° (ESE) 07:28:01 437.365/2234.400
GONETS M04 01 Oct 07:18:42 07:23:51 17° 70° (ENE) 07:29:00
HORYU 2 01 Oct 07:20:12 07:24:39 67° 288° (WNW) 07:29:04 437.375
PCSat 01 Oct 07:23:09 07:27:37 25° 332° (NNW) 07:32:06 145.827
NOAA 15 01 Oct 07:32:54 07:38:04 49° 99° (E) 07:43:12 137.62
NOAA 18 01 Oct 07:34:20 07:39:20 35° 96° (E) 07:44:19 137.9125
BEESAT 2 01 Oct 07:34:48 07:37:44 19° 23° (NNE) 07:40:41 435.950
HO-68 01 Oct 07:37:25 07:39:40 11° 80° (E) 07:41:54 435.675
DANDE 01 Oct 07:37:51 07:46:13 70° 263° (W) 07:53:59 436.750
LilacSat-2 01 Oct 07:48:02 07:51:52 62° 102° (ESE) 07:55:41 437.200
RS-15 01 Oct 07:54:27 08:01:55 19° 266° (W) 08:09:20 29.354- 29.394
O/OREOS (USA 219) 01 Oct 08:01:09 08:05:44 85° 117° (ESE) 08:10:22 437.305
CUTE-I 01 Oct 08:01:28 08:06:51 70° 104° (ESE) 08:12:12 437.470
Cubesat XI-IV 01 Oct 08:02:34 08:07:57 71° 104° (ESE) 08:13:18 437.490
BEESAT 3 01 Oct 08:08:49 08:12:34 37° 38° (NE) 08:16:18 437.485
Cosmos 2499 01 Oct 08:19:47 08:25:31 28° 82° (E) 08:31:18 435.465 / 435.565
SEEDS 01 Oct 08:21:10 08:22:20 11° 85° (E) 08:23:29 437.485
CUTE 1.7 + AOD 2 01 Oct 08:25:26 08:28:16 17° 89° (E) 08:31:05 437.475
GOMX 1 01 Oct 08:27:02 08:31:22 53° 290° (WNW) 08:35:28 467.674
CANX-2 01 Oct 08:27:13 08:30:25 20° 90° (E) 08:33:35 2200.000
AO-7 01 Oct 08:28:26 08:34:16 22° 323° (NW) 08:40:05 29.400- 29.500
DOVE 4 01 Oct 08:29:01 08:33:15 76° 103° (ESE) 08:37:23 437.250
STRAND 1 01 Oct 08:42:40 08:47:18 34° 264° (W) 08:52:00 437.568
AIST 2 01 Oct 08:51:46 08:54:05 14° 9° (N) 08:56:24 435.215
BRITE-PL 01 Oct 08:58:10 09:01:24 18° 305° (NW) 09:04:28 437.365/2234.400
HORYU 2 01 Oct 08:58:44 09:00:24 12° 308° (NW) 09:02:03 437.375
CUSAT 1 01 Oct 09:00:25 09:02:04 11° 292° (WNW) 09:03:39 437.405
PRISM 01 Oct 09:03:58 09:08:04 57° 70° (ENE) 09:12:11 437.425
UNISAT 6 01 Oct 09:07:00 09:08:46 12° 54° (NE) 09:10:32 437.425
PCSat 01 Oct 09:09:40 09:12:56 16° 358° (N) 09:16:14 145.827
GONETS M04 01 Oct 09:10:13 09:18:57 67° 93° (E) 09:27:42
BEESAT 2 01 Oct 09:12:14 09:16:16 66° 45° (NE) 09:20:16 435.950
CINEMA 3 01 Oct 09:12:59 09:17:09 60° 102° (ESE) 09:21:22 145.822/145.860
NOAA 15 01 Oct 09:13:02 09:17:41 32° 300° (WNW) 09:22:19 137.62
NOAA 18 01 Oct 09:14:57 09:20:08 45° 296° (WNW) 09:25:20 137.9125
COMPASS 1 01 Oct 09:18:54 09:22:33 27° 94° (E) 09:26:10 437.405
HO-68 01 Oct 09:22:02 09:29:04 55° 101° (E) 09:36:04 435.675
DANDE 01 Oct 09:22:09 09:27:35 20° 285° (WNW) 09:32:50 436.750
LilacSat-2 01 Oct 09:23:19 09:25:46 16° 300° (WNW) 09:28:12 437.200
ANTELSAT 01 Oct 09:40:19 09:43:38 23° 61° (ENE) 09:47:00 437.575/2403.000
FUNcube-1 01 Oct 09:41:32 09:44:25 17° 89° (E) 09:47:18 145.935
CUTE-I 01 Oct 09:42:15 09:46:27 24° 303° (WNW) 09:50:40 437.470
O/OREOS (USA 219) 01 Oct 09:42:23 09:45:47 20° 319° (NW) 09:49:12 437.305
Cubesat XI-IV 01 Oct 09:43:22 09:47:34 24° 303° (WNW) 09:51:45 437.490
BEESAT 3 01 Oct 09:46:32 09:50:15 37° 238° (WSW) 09:53:55 437.485
JAS-2 01 Oct 09:53:32 09:57:36 16° 39° (NE) 10:01:51 435.910
SEEDS 01 Oct 09:54:27 09:58:44 83° 102° (ESE) 10:03:01 437.485
CUBEBUG 2 01 Oct 09:54:30 09:58:41 48° 99° (E) 10:02:58 437.445
TIGRISAT 01 Oct 09:59:14 10:02:57 31° 64° (ENE) 10:06:42 435.000
CUTE 1.7 + AOD 2 01 Oct 10:00:16 10:04:33 64° 288° (WNW) 10:08:48 437.475
CANX-2 01 Oct 10:02:22 10:06:36 54° 289° (WNW) 10:10:48 2200.000
UWE-3 01 Oct 10:04:26 10:08:34 42° 98° (E) 10:12:46 435.000/436.395/437.385
AAUSAT CUBESAT 2 01 Oct 10:05:46 10:09:57 62° 101° (E) 10:14:06 437.432
DOVE 4 01 Oct 10:07:57 10:10:26 15° 303° (WNW) 10:12:53 437.250
Cosmos 2499 01 Oct 10:11:01 10:18:02 68° 284° (WNW) 10:25:11 435.465 / 435.565
Oscar 11 01 Oct 10:15:42 10:19:43 34° 96° (E) 10:23:42 145.826/435.025
AO-7 01 Oct 10:22:30 10:23:59 11° 350° (N) 10:25:28 29.400- 29.500
ZACube-1 01 Oct 10:24:58 10:29:08 44° 98° (E) 10:33:22 437.345
QB50P2 01 Oct 10:27:51 10:29:44 13° 54° (NE) 10:31:37 145.880/145.840
POLYITAN 1 01 Oct 10:30:01 10:31:54 13° 54° (NE) 10:33:45 437.675
AIST 2 01 Oct 10:30:09 10:33:50 29° 32° (NNE) 10:37:32 435.215
UNISAT 6 01 Oct 10:40:31 10:44:46 77° 72° (ENE) 10:49:04 437.425
PRISM 01 Oct 10:40:46 10:43:43 18° 269° (W) 10:46:40 437.425
BEESAT 2 01 Oct 10:50:47 10:53:42 19° 245° (WSW) 10:56:36 435.950
CINEMA 3 01 Oct 10:51:00 10:53:57 19° 300° (WNW) 10:56:55 145.822/145.860
DELFI C3 01 Oct 10:52:36 10:56:18 33° 96° (E) 10:59:57 145.870
PCSat 01 Oct 10:54:08 10:58:22 22° 24° (NNE) 11:02:35 145.827
COMPASS 1 01 Oct 10:54:17 10:58:12 37° 293° (WNW) 11:02:06 437.405
NOAA 18 01 Oct 10:58:10 10:59:33 11° 317° (NW) 11:00:56 137.9125
DUCHIFAT 1 01 Oct 11:00:45 11:03:49 20° 60° (ENE) 11:06:53 145.980
QB50P1 01 Oct 11:06:50 11:10:17 25° 63° (ENE) 11:13:45 145.935-145.965
GONETS M04 01 Oct 11:08:24 11:16:27 37° 298° (WNW) 11:24:32
HO-68 01 Oct 11:10:06 11:16:39 41° 303° (WNW) 11:23:12 435.675
ANTELSAT 01 Oct 11:15:58 11:20:06 49° 260° (W) 11:24:17 437.575/2403.000
FUNcube-1 01 Oct 11:16:46 11:21:04 66° 288° (WNW) 11:25:28 145.935
POPSAT HIP 1 01 Oct 11:20:24 11:24:09 32° 65° (ENE) 11:27:53 437.405
SEEDS 01 Oct 11:31:24 11:33:52 15° 303° (WNW) 11:36:20 437.485
CUBEBUG 2 01 Oct 11:31:40 11:35:06 24° 297° (WNW) 11:38:36 437.445
NANOSAT C BR1 01 Oct 11:33:40 11:37:35 40° 68° (ENE) 11:41:32 145.865
JAS-2 01 Oct 11:34:13 11:40:51 49° 62° (ENE) 11:48:09 435.910
TIGRISAT 01 Oct 11:35:44 11:39:37 34° 264° (W) 11:43:32 435.000
CUTE 1.7 + AOD 2 01 Oct 11:38:30 11:39:34 11° 307° (NW) 11:40:38 437.475
UWE-3 01 Oct 11:41:15 11:44:54 27° 296° (WNW) 11:48:36 435.000/436.395/437.385
AAUSAT CUBESAT 2 01 Oct 11:42:06 11:45:02 19° 300° (WNW) 11:47:58 437.432
HUMSAT D 01 Oct 11:46:36 11:50:51 63° 101° (E) 11:55:07 437.325/437.525
Oscar 11 01 Oct 11:51:55 11:55:49 32° 295° (WNW) 11:59:42 145.826/435.025
ESTCUBE 1 01 Oct 11:55:41 11:58:34 16° 88° (E) 12:01:27 437.505/2401.250
QB50P2 01 Oct 12:00:39 12:04:51 81° 75° (ENE) 12:09:05 145.880/145.840
ZACube-1 01 Oct 12:01:39 12:05:15 26° 297° (WNW) 12:08:55 437.345
POLYITAN 1 01 Oct 12:02:49 12:07:01 82° 74° (ENE) 12:11:15 437.675
Cosmos 2499 01 Oct 12:08:27 12:12:48 17° 310° (NW) 12:17:14 435.465 / 435.565
AIST 2 01 Oct 12:08:28 12:12:38 62° 233° (SW) 12:16:47 435.215
AO-7 01 Oct 12:10:18 12:13:10 12° 18° (NNE) 12:16:00 29.400- 29.500
UNISAT 6 01 Oct 12:19:51 12:22:05 14° 273° (W) 12:24:18 437.425
BUGSAT 1 01 Oct 12:20:58 12:24:53 49° 70° (ENE) 12:28:48 437.445
DELFI C3 01 Oct 12:27:35 12:31:05 29° 295° (WNW) 12:34:31 145.870
AISAT 01 Oct 12:30:54 12:33:59 18° 90° (E) 12:37:02 437.250
Gurwin Techsat 1B 01 Oct 12:32:00 12:34:36 14° 49° (NE) 12:37:12 435.225
DUCHIFAT 1 01 Oct 12:35:04 12:39:11 56° 259° (W) 12:43:18 145.980
PCSat 01 Oct 12:37:24 12:42:50 63° 48° (NE) 12:48:12 145.827
Oscar 19 01 Oct 12:39:22 12:43:33 25° 58° (ENE) 12:47:45 437.125/150
QB50P1 01 Oct 12:41:54 12:45:53 43° 261° (W) 12:49:55 145.935-145.965
50 SAT 01 Oct 12:45:06 12:47:53 20° 93° (E) 12:50:38 437.505
DX 1 01 Oct 12:52:23 12:55:23 18° 90° (E) 12:58:22 434.975-435.025
YUBILEINY 01 Oct 12:54:21 13:01:46 30° 58° (ENE) 13:09:08 435.215
FUNcube-1 01 Oct 12:55:16 12:56:33 11° 307° (NW) 12:57:51 145.935
POPSAT HIP 1 01 Oct 12:56:08 12:59:55 32° 264° (W) 13:03:43 437.405
HO-68 01 Oct 12:59:32 13:02:35 13° 326° (NW) 13:05:37 435.675
Cosmos 2491 01 Oct 13:05:53 13:08:19 11° 64° (ENE) 13:10:45 435.465 / 435.565
CUBEBUG 1 01 Oct 13:07:02 13:11:15 46° 99° (E) 13:15:24 437.445
NANOSAT C BR1 01 Oct 13:09:59 13:13:28 25° 266° (W) 13:16:58 145.865
Cosmos 2504 01 Oct 13:11:40 13:15:46 15° 48° (NE) 13:19:58 435.465 / 435.565
VELOX 1 01 Oct 13:13:24 13:17:37 41° 98° (E) 13:21:47 145.980
GONETS M04 01 Oct 13:14:01 13:16:46 12° 327° (NNW) 13:19:31
JAS-2 01 Oct 13:19:22 13:25:56 46° 265° (W) 13:33:14 435.910
HUMSAT D 01 Oct 13:23:04 13:26:06 19° 300° (WNW) 13:29:06 437.325/437.525
AUBIESAT-1 01 Oct 13:23:49 13:25:42 14° 98° (E) 13:27:36 437.475
SPROUT 01 Oct 13:28:46 13:32:42 35° 97° (E) 13:36:38 437.525
ESTCUBE 1 01 Oct 13:31:21 13:35:55 73° 288° (WNW) 13:40:25 437.505/2401.250
QB50P2 01 Oct 13:39:16 13:41:15 13° 273° (W) 13:43:14 145.880/145.840
POLYITAN 1 01 Oct 13:41:27 13:43:25 13° 273° (W) 13:45:22 437.675
ITAMSAT 1 01 Oct 13:42:47 13:45:52 16° 51° (NE) 13:48:58 435.822/435.867
UKube-1 01 Oct 13:51:04 13:55:16 48° 100° (E) 13:59:27 .
AO-7 01 Oct 13:56:35 14:03:15 28° 44° (NE) 14:09:54 29.400- 29.500
BUGSAT 1 01 Oct 13:57:31 14:00:32 20° 268° (W) 14:03:34 437.445
M-CUBED/EXP-1 PRIME 01 Oct 14:03:52 14:07:04 48° 107° (ESE) 14:10:16 437.505
AISAT 01 Oct 14:06:30 14:10:52 61° 290° (WNW) 14:15:10 437.250
Gurwin Techsat 1B 01 Oct 14:08:21 14:13:35 62° 69° (ENE) 14:18:51 435.225
Oscar 19 01 Oct 14:17:22 14:22:31 63° 258° (WSW) 14:27:41 437.125/150
50 SAT 01 Oct 14:18:05 14:21:32 40° 292° (WNW) 14:24:59 437.505
PCSat 01 Oct 14:21:17 14:25:54 29° 248° (WSW) 14:30:29 145.827
DX 1 01 Oct 14:27:41 14:31:59 62° 289° (WNW) 14:36:15 434.975-435.025
TISAT 1 01 Oct 14:34:20 14:38:11 35° 97° (E) 14:42:02 437.305
CUBEBUG 1 01 Oct 14:43:47 14:47:19 25° 298° (WNW) 14:50:49 437.445
O/OREOS (USA 219) 01 Oct 14:48:13 14:50:53 15° 36° (NE) 14:53:33 437.305
VELOX 1 01 Oct 14:50:11 14:53:56 28° 298° (WNW) 14:57:40 145.980
YUBILEINY 01 Oct 14:50:56 14:59:41 83° 262° (W) 15:08:23 435.215
Cosmos 2491 01 Oct 14:54:30 15:02:50 50° 88° (E) 15:11:13 435.465 / 435.565
AUBIESAT-1 01 Oct 14:57:17 15:00:29 47° 296° (WNW) 15:03:41 437.475
SO-50 01 Oct 15:01:54 15:06:06 30° 119° (ESE) 15:10:16 436.795
Cosmos 2504 01 Oct 15:03:41 15:10:59 58° 73° (ENE) 15:18:46 435.465 / 435.565
SPROUT 01 Oct 15:04:52 15:08:35 30° 296° (WNW) 15:12:18 437.525
ESTCUBE 1 01 Oct 15:09:54 15:11:57 13° 307° (NW) 15:13:59 437.505/2401.250
ITUPSAT 1 01 Oct 15:16:26 15:20:15 23° 92° (E) 15:24:02 437.325
ITAMSAT 1 01 Oct 15:19:23 15:24:32 77° 72° (ENE) 15:29:45 435.822/435.867
SWISSCUBE 01 Oct 15:26:56 15:31:12 31° 95° (E) 15:35:27 437.505
UKube-1 01 Oct 15:27:36 15:31:04 24° 299° (WNW) 15:34:31 .
M-CUBED/EXP-1 PRIME 01 Oct 15:39:16 15:41:21 16° 306° (NW) 15:43:26 437.505
BEESAT 01 Oct 15:39:21 15:43:46 35° 96° (E) 15:48:10 436.000
AIST 1 01 Oct 15:41:07 15:44:44 25° 68° (ENE) 15:48:18
AISAT 01 Oct 15:45:24 15:46:28 11° 309° (NW) 15:47:33 437.250
AO-7 01 Oct 15:46:43 15:55:02 83° 66° (ENE) 16:03:23 29.400- 29.500
Gurwin Techsat 1B 01 Oct 15:49:43 15:53:58 24° 269° (W) 15:58:15 435.225
Oscar 19 01 Oct 16:02:13 16:02:54 10° 278° (W) 16:03:35 437.125/150
DX 1 01 Oct 16:06:19 16:07:20 11° 309° (NW) 16:08:20 434.975-435.025
TISAT 1 01 Oct 16:10:09 16:13:46 29° 296° (WNW) 16:17:22 437.305
KKS-1 01 Oct 16:25:12 16:27:19 13° 87° (E) 16:29:25 437.445
O/OREOS (USA 219) 01 Oct 16:26:40 16:31:16 63° 58° (ENE) 16:35:50 437.305
MOZHAYETS 4 01 Oct 16:29:01 16:32:47 23° 92° (E) 16:36:30
SO-50 01 Oct 16:41:39 16:46:23 57° 318° (NW) 16:51:05 436.795
HORYU 2 01 Oct 16:47:24 16:51:18 31° 63° (ENE) 16:55:12 437.375
STARS 01 Oct 16:48:03 16:49:13 11° 86° (E) 16:50:23 437.465
YUBILEINY 01 Oct 16:49:03 16:55:10 22° 286° (WNW) 17:01:16 435.215
Cosmos 2491 01 Oct 16:51:17 16:59:46 49° 292° (WNW) 17:08:20 435.465 / 435.565
ITUPSAT 1 01 Oct 16:53:42 16:58:26 57° 291° (WNW) 17:03:09 437.325
BRITE-PL 01 Oct 16:56:18 17:01:04 29° 62° (ENE) 17:05:39 437.365/2234.400
Cosmos 2504 01 Oct 16:57:30 17:04:07 36° 274° (W) 17:11:06 435.465 / 435.565
ITAMSAT 1 01 Oct 17:01:01 17:04:37 19° 271° (W) 17:08:15 435.822/435.867
SWISSCUBE 01 Oct 17:04:35 17:09:08 42° 294° (WNW) 17:13:38 437.505
BEESAT 01 Oct 17:17:11 17:21:35 37° 296° (WNW) 17:25:57 436.000
GONETS M04 01 Oct 17:18:02 17:22:22 14° 39° (NE) 17:26:41
AIST 1 01 Oct 17:18:28 17:22:29 39° 268° (W) 17:26:27
NOAA 15 01 Oct 17:20:05 17:24:23 26° 57° (ENE) 17:28:42 137.62
NOAA 18 01 Oct 17:27:23 17:31:31 22° 54° (NE) 17:35:39 137.9125
AO-7 01 Oct 17:41:53 17:48:44 28° 269° (W) 17:55:39 29.400- 29.500
CUTE-I 01 Oct 17:49:43 17:54:28 34° 62° (ENE) 17:59:15 437.470
Cubesat XI-IV 01 Oct 17:50:56 17:55:42 35° 62° (ENE) 18:00:30 437.490
CUBESAT XI-V 01 Oct 18:00:03 18:04:04 27° 93° (E) 18:08:03 437.345
KKS-1 01 Oct 18:00:04 18:04:32 87° 286° (WNW) 18:08:58 437.445
GOMX 1 01 Oct 18:01:46 18:06:42 43° 68° (ENE) 18:11:20 467.674
Cosmos 2499 01 Oct 18:02:04 18:06:43 17° 50° (NE) 18:11:32 435.465 / 435.565
DOVE 4 01 Oct 18:03:02 18:06:39 22° 61° (ENE) 18:10:09 437.250
RS-15 01 Oct 18:05:34 18:10:38 14° 90° (E) 18:15:47 29.354- 29.394
MOZHAYETS 4 01 Oct 18:05:42 18:10:14 52° 291° (WNW) 18:14:45
O/OREOS (USA 219) 01 Oct 18:06:53 18:10:15 20° 258° (WSW) 18:13:35 437.305
HO-68 01 Oct 18:11:23 18:16:24 21° 44° (NE) 18:21:25 435.675
STARS 01 Oct 18:21:55 18:26:19 81° 106° (ESE) 18:30:41 437.465
HORYU 2 01 Oct 18:23:43 18:27:48 36° 263° (W) 18:31:54 437.375
SO-50 01 Oct 18:24:07 18:27:48 21° 341° (NNW) 18:31:26 436.795
BRITE-PL 01 Oct 18:33:41 18:39:16 58° 260° (W) 18:44:38 437.365/2234.400
ITUPSAT 1 01 Oct 18:33:45 18:35:19 11° 311° (NW) 18:36:53 437.325
LilacSat-2 01 Oct 18:34:55 18:38:39 66° 73° (ENE) 18:42:25 437.200
CUSAT 1 01 Oct 18:39:02 18:45:14 34° 85° (E) 18:52:09 437.405
CINEMA 3 01 Oct 18:44:57 18:47:28 15° 58° (ENE) 18:49:56 145.822/145.860
Cosmos 2491 01 Oct 18:54:38 18:59:23 15° 319° (NW) 19:04:10 435.465 / 435.565
NOAA 15 01 Oct 18:58:30 19:03:47 65° 257° (WSW) 19:09:06 137.62
NOAA 18 01 Oct 19:06:10 19:11:38 79° 253° (WSW) 19:17:08 137.9125
DANDE 01 Oct 19:10:04 19:14:54 24° 78° (ENE) 19:20:33 436.750
GONETS M04 01 Oct 19:13:42 19:22:09 46° 67° (ENE) 19:30:28
SEEDS 01 Oct 19:17:19 19:20:01 17° 58° (ENE) 19:22:45 437.485
CUTE 1.7 + AOD 2 01 Oct 19:23:03 19:26:28 24° 62° (ENE) 19:29:56 437.475
CUBEBUG 2 01 Oct 19:24:39 19:26:03 12° 54° (NE) 19:27:28 437.445
CANX-2 01 Oct 19:24:57 19:28:34 28° 64° (ENE) 19:32:15 2200.000
AAUSAT CUBESAT 2 01 Oct 19:28:16 19:30:08 13° 55° (NE) 19:32:00 437.432
CUTE-I 01 Oct 19:29:20 19:34:24 45° 261° (W) 19:39:33 437.470
Cubesat XI-IV 01 Oct 19:30:37 19:35:41 44° 261° (W) 19:40:48 437.490
CUBESAT XI-V 01 Oct 19:37:09 19:41:39 45° 292° (WNW) 19:46:05 437.345
KKS-1 01 Oct 19:38:01 19:40:27 15° 306° (NW) 19:42:53 437.445
DOVE 4 01 Oct 19:39:17 19:44:04 60° 259° (W) 19:48:35 437.250
GOMX 1 01 Oct 19:40:11 19:44:52 32° 265° (W) 19:49:21 467.674
ZACube-1 01 Oct 19:53:55 19:54:31 10° 52° (NE) 19:55:07 437.345
Cosmos 2499 01 Oct 19:54:03 20:01:32 63° 74° (ENE) 20:09:35 435.465 / 435.565
HO-68 01 Oct 19:55:54 20:03:01 70° 67° (ENE) 20:10:09 435.675
STARS 01 Oct 19:59:25 20:02:08 16° 304° (NW) 20:04:50 437.465
SO-50 01 Oct 20:06:44 20:09:52 17° 6° (N) 20:12:58 436.795
RS-15 01 Oct 20:08:43 20:19:52 54° 115° (ESE) 20:31:32 29.354- 29.394
LilacSat-2 01 Oct 20:11:30 20:13:24 13° 272° (W) 20:15:18 437.200
COMPASS 1 01 Oct 20:14:30 20:18:22 37° 67° (ENE) 20:22:16 437.405
BRITE-PL 01 Oct 20:17:50 20:18:46 10° 279° (W) 20:19:42 437.365/2234.400
CUSAT 1 01 Oct 20:19:42 20:26:45 68° 288° (WNW) 20:34:47 437.405
CINEMA 3 01 Oct 20:19:46 20:24:07 79° 256° (WSW) 20:28:21 145.822/145.860
FUNcube-1 01 Oct 20:42:12 20:45:34 25° 63° (ENE) 20:48:58 145.935
AO-85 01 Oct 20:42:47 20:47:12 30° 119° (ESE) 20:51:23 145.980
NOAA 15 01 Oct 20:43:14 20:44:37 11° 277° (W) 20:46:00 137.62
STRAND 1 01 Oct 20:46:50 20:51:55 54° 101° (E) 20:56:58 437.568
NOAA 18 01 Oct 20:50:23 20:53:13 14° 274° (W) 20:56:03 137.9125
DANDE 01 Oct 20:50:30 20:56:35 83° 284° (WNW) 21:04:23 436.750
ISS 01 Oct 20:50:32 20:53:34 37° 154° (SSE) 20:56:38 145.825
SEEDS 01 Oct 20:51:00 20:55:13 73° 257° (WSW) 20:59:30 437.485
CUBEBUG 2 01 Oct 20:57:49 21:01:58 76° 73° (ENE) 21:06:08 437.445
CUTE 1.7 + AOD 2 01 Oct 20:58:00 21:02:05 46° 261° (W) 21:06:14 437.475
CANX-2 01 Oct 21:00:19 21:04:19 39° 263° (W) 21:08:21 2200.000
AAUSAT CUBESAT 2 01 Oct 21:00:45 21:04:56 82° 72° (ENE) 21:09:10 437.432
UWE-3 01 Oct 21:06:36 21:10:41 63° 73° (ENE) 21:14:49 435.000/436.395/437.385
HUMSAT D 01 Oct 21:10:02 21:11:57 13° 55° (NE) 21:13:53 437.325/437.525
GONETS M04 01 Oct 21:10:44 21:19:11 53° 271° (W) 21:27:34
Oscar 11 01 Oct 21:15:20 21:19:31 51° 70° (ENE) 21:23:45 145.826/435.025
ZACube-1 01 Oct 21:25:54 21:29:59 65° 73° (ENE) 21:34:09 437.345
DELFI C3 01 Oct 21:43:13 21:47:00 41° 69° (ENE) 21:50:49 145.870
HO-68 01 Oct 21:45:12 21:51:20 30° 268° (W) 21:57:30 435.675
SO-50 01 Oct 21:47:33 21:51:44 31° 30° (NNE) 21:55:48 436.795
Cosmos 2499 01 Oct 21:47:42 21:54:19 34° 275° (W) 22:01:22 435.465 / 435.565
COMPASS 1 01 Oct 21:50:23 21:54:00 28° 266° (W) 21:57:40 437.405
CINEMA 3 01 Oct 22:01:41 22:01:59 10° 275° (W) 22:02:18 145.822/145.860
CUSAT 1 01 Oct 22:04:57 22:10:26 21° 311° (NW) 22:16:15 437.405
PRISM 01 Oct 22:15:17 22:19:15 42° 99° (E) 22:23:09 437.425
FUNcube-1 01 Oct 22:17:42 22:21:39 42° 262° (W) 22:25:38 145.935
RS-15 01 Oct 22:20:21 22:32:13 68° 322° (NW) 22:44:36 29.354- 29.394
AO-85 01 Oct 22:22:30 22:27:29 59° 317° (NW) 22:32:07 145.980
STRAND 1 01 Oct 22:26:29 22:30:51 28° 300° (WNW) 22:35:11 437.568
ISS 01 Oct 22:26:37 22:29:54 87° 181° (S) 22:33:11 145.825
UNISAT 6 01 Oct 22:28:30 22:29:59 11° 86° (E) 22:31:28 437.425
CUBEBUG 1 01 Oct 22:34:39 22:36:38 13° 54° (NE) 22:38:36 437.445
DANDE 01 Oct 22:35:37 22:40:49 24° 310° (NW) 22:46:52 436.750
CUBEBUG 2 01 Oct 22:37:05 22:39:10 13° 273° (W) 22:41:15 437.445
AAUSAT CUBESAT 2 01 Oct 22:39:03 22:41:00 13° 274° (W) 22:42:57 437.432
VELOX 1 01 Oct 22:42:21 22:44:15 13° 53° (NE) 22:46:09 145.980
HUMSAT D 01 Oct 22:42:48 22:46:55 86° 72° (ENE) 22:51:06 437.325/437.525
UWE-3 01 Oct 22:45:02 22:47:38 16° 271° (W) 22:50:13 435.000/436.395/437.385
Oscar 11 01 Oct 22:52:39 22:55:57 21° 269° (W) 22:59:17 145.826/435.025
ESTCUBE 1 01 Oct 22:59:55 23:03:49 29° 63° (ENE) 23:07:46 437.505/2401.250
ANTELSAT 01 Oct 23:02:04 23:05:38 23° 92° (E) 23:09:15 437.575/2403.000
Cosmos 2491 01 Oct 23:02:59 23:05:00 11° 31° (NNE) 23:07:02 435.465 / 435.565
ZACube-1 01 Oct 23:04:13 23:06:45 16° 271° (W) 23:09:18 437.345
GONETS M04 01 Oct 23:10:36 23:13:49 12° 295° (WNW) 23:17:01
UKube-1 01 Oct 23:17:13 23:19:23 14° 54° (NE) 23:21:33 .
DELFI C3 01 Oct 23:18:45 23:22:00 23° 267° (W) 23:25:17 145.870
TIGRISAT 01 Oct 23:21:03 23:25:02 32° 96° (E) 23:29:04 435.000
M-CUBED/EXP-1 PRIME 01 Oct 23:21:32 23:24:28 22° 57° (ENE) 23:27:17 437.505
50 SAT 01 Oct 23:26:50 23:29:39 21° 63° (ENE) 23:32:30 437.505
SO-50 01 Oct 23:27:59 23:32:35 68° 232° (SW) 23:37:03 436.795
AISAT 01 Oct 23:32:57 23:36:54 32° 64° (ENE) 23:40:51 437.250
PRISM 01 Oct 23:50:58 23:54:23 25° 298° (WNW) 23:57:45 437.425
DX 1 01 Oct 23:52:35 23:56:27 31° 64° (ENE) 00:00:19 434.975-435.025
UNISAT 6 02 Oct 00:02:57 00:07:24 82° 103° (ESE) 00:11:56 437.425
ISS 02 Oct 00:03:07 00:06:24 74° 193° (SSW) 00:09:40 145.825
AO-85 02 Oct 00:05:05 00:08:47 21° 338° (NNW) 00:12:17 145.980
CUBEBUG 1 02 Oct 00:07:47 00:12:12 76° 73° (ENE) 00:16:36 437.445
AUBIESAT-1 02 Oct 00:13:33 00:17:17 55° 66° (ENE) 00:20:47 437.475
DUCHIFAT 1 02 Oct 00:14:33 00:17:11 16° 89° (E) 00:19:49 145.980
VELOX 1 02 Oct 00:15:32 00:19:57 73° 73° (ENE) 00:24:25 145.980
QB50P1 02 Oct 00:21:23 00:24:37 21° 92° (E) 00:27:51 145.935-145.965
HUMSAT D 02 Oct 00:21:35 00:23:10 12° 274° (W) 00:24:45 437.325/437.525
JAS-2 02 Oct 00:22:44 00:29:29 30° 88° (E) 00:35:56 435.910
SPROUT 02 Oct 00:27:07 00:31:16 54° 70° (ENE) 00:35:26 437.525
POPSAT HIP 1 02 Oct 00:35:06 00:38:44 27° 94° (E) 00:42:22 437.405
RS-15 02 Oct 00:35:41 00:47:13 45° 354° (N) 00:58:59 29.354- 29.394
ESTCUBE 1 02 Oct 00:36:11 00:40:30 42° 262° (W) 00:44:51 437.505/2401.250
ANTELSAT 02 Oct 00:38:19 00:42:36 49° 291° (WNW) 00:46:58 437.575/2403.000
BEESAT 2 02 Oct 00:47:19 00:50:06 19° 115° (ESE) 00:52:55 435.950
NANOSAT C BR1 02 Oct 00:48:01 00:51:53 34° 97° (E) 00:55:45 145.865
UKube-1 02 Oct 00:50:25 00:54:45 83° 73° (ENE) 00:59:07 .
M-CUBED/EXP-1 PRIME 02 Oct 00:55:07 00:58:52 43° 254° (WSW) 01:02:21 437.505
Cosmos 2491 02 Oct 00:57:35 01:05:31 35° 61° (ENE) 01:13:23 435.465 / 435.565
TIGRISAT 02 Oct 00:57:44 01:01:45 35° 294° (WNW) 01:05:51 435.000
50 SAT 02 Oct 00:59:30 01:02:56 39° 262° (W) 01:06:26 437.505
SWISSCUBE 02 Oct 01:04:10 01:06:10 13° 50° (NE) 01:08:09 437.505
AISAT 02 Oct 01:09:14 01:13:20 36° 263° (W) 01:17:27 437.250
SO-50 02 Oct 01:10:44 01:12:10 11° 252° (WSW) 01:13:36 436.795
QB50P2 02 Oct 01:15:45 01:20:00 72° 104° (ESE) 01:24:13 145.880/145.840
BEESAT 02 Oct 01:16:03 01:18:31 14° 52° (NE) 01:20:59 436.000
POLYITAN 1 02 Oct 01:17:54 01:22:08 72° 103° (ESE) 01:26:22 437.675
BEESAT 3 02 Oct 01:18:23 01:22:15 61° 127° (SE) 01:26:10 437.485
DX 1 02 Oct 01:28:34 01:32:36 36° 263° (W) 01:36:39 434.975-435.025
TISAT 1 02 Oct 01:30:47 01:34:51 54° 70° (ENE) 01:38:57 437.305
BUGSAT 1 02 Oct 01:32:28 01:36:16 38° 98° (E) 01:40:03 437.445
ISS 02 Oct 01:39:49 01:42:35 25° 212° (SSW) 01:45:21 145.825
UNISAT 6 02 Oct 01:40:51 01:43:36 16° 303° (WNW) 01:46:23 437.425
CUBEBUG 1 02 Oct 01:46:28 01:49:01 15° 272° (W) 01:51:35 437.445
AO-85 02 Oct 01:48:02 01:50:48 16° 3° (N) 01:53:27 145.980
DUCHIFAT 1 02 Oct 01:49:09 01:53:19 65° 288° (WNW) 01:57:28 145.980
AUBIESAT-1 02 Oct 01:49:39 01:52:01 16° 261° (W) 01:54:19 437.475
VELOX 1 02 Oct 01:54:11 01:56:56 16° 271° (W) 01:59:42 145.980
QB50P1 02 Oct 01:56:35 02:00:40 49° 290° (WNW) 02:04:45 145.935-145.965
